www.pogodaiklimat.ru
ПОГОДА в Бедфорде
Время
и дата
10:18 20.05
10:30 20.05
10:58 20.05
11:10 20.05
11:38 20.05
11:55 20.05
12:15 20.05
12:38 20.05
12:58 20.05
13:18 20.05
13:35 20.05
13:55 20.05
14:10 20.05
14:37 20.05
14:55 20.05
15:10 20.05
15:40 20.05
15:55 20.05
16:15 20.05
16:35 20.05
16:55 20.05
17:15 20.05
17:35 20.05
17:55 20.05
18:15 20.05
18:35 20.05
18:55 20.05
19:15 20.05
19:35 20.05
19:55 20.05
20:15 20.05
20:35 20.05
21:15 20.05
21:35 20.05
21:55 20.05
22:15 20.05
22:35 20.05
22:55 20.05
23:15 20.05
23:35 20.05
23:55 20.05
00:15 21.05
00:38 21.05
00:55 21.05
01:15 21.05
01:35 21.05
01:55 21.05
02:15 21.05
Ветер
(напр.,м/с)
Видим. Явления Облачность Т
(С)
Тd
(С)
f
(%)
Тe
(С)
Тes
(С)
Комфортность P
(гПа)
Po
(гПа)
Тmin
(С)
Tmax
(С)
R
(мм)
R24
(мм)
S
(см)
ЮВ 2 16 км ясно +21.0 +19.0 88 +26 +41 душно 976.5
Ю 2 16 км ясно +22.1 +15.8 67 +26 +41 душно 976.2
штиль 0 16 км ясно +23.0 +16.0 65 +27 +48 душно 975.8
В 2 16 км ясно +23.7 +14.6 57 +26 +45 жарко 975.8
Ю 3 16 км ясно +25.0 +14.0 50 +27 +42 жарко 975.5
штиль 0 16 км ясно +25.5 +13.0 46 +27 +52 опасность
солнечного
удара
975.8
штиль 0 16 км ясно +25.7 +12.5 44 +27 +54 опасность
солнечного
удара
975.5
Ю 2 16 км ясно +26.0 +13.0 45 +28 +48 жарко 975.2
штиль 0 16 км ясно +26.0 +13.0 45 +28 +54 опасность
солнечного
удара
974.9
штиль 0 16 км 5/5 1500 м +26.0 +13.0 45 +28 +41 жарко 974.9
Ю 3 16 км 5/5 1500 м +26.0 +12.8 44 +28 +36 жарко 974.9
ЮЗ 2 16 км 5/5 1500 м +26.0 +13.6 46 +28 +38 жарко 974.9
Ю 4 16 км 5/5 1500 м +27.0 +13.5 43 +29 +34 жарко 974.5
ЮЗ 4 16 км ясно +27.0 +13.0 42 +29 +40 жарко 974.5
ЮЗ 2 16 км 5/5 1650 м +26.5 +12.9 43 +28 +37 жарко 974.2
Ю 2 16 км 5/5 1650 м +27.2 +12.4 40 +29 +35 жарко 974.2
З 2 16 км ясно +26.8 +12.7 42 +28 +41 жарко 973.9
ЮВ 2 16 км ясно +26.1 +12.2 42 +28 +40 жарко 973.9
ЮЗ 2 16 км ясно +26.6 +12.4 41 +28 +37 жарко 973.9
ЮВ 2 16 км ясно +26.0 +11.7 41 +27 +36 жарко 973.9
Ю 2 16 км ясно +27.0 +11.3 38 +28 +37 жарко 973.9
ЮВ 2 16 км ясно +25.6 +11.8 42 +27 +32 жарко 973.6
ЮВ 3 16 км ясно +25.7 +12.2 43 +27 +31 жарко 973.6
Ю 4 16 км ясно +25.4 +12.1 43 +27 +30 жарко 973.9
Ю 2 16 км ясно +25.2 +12.0 44 +27 +28 жарко 973.9
Ю 2 16 км ясно +24.9 +11.4 43 +26 +28 жарко 973.9
Ю 3 16 км ясно +24.1 +12.0 47 +26 +27 жарко 973.9 +24.1 +27.5
Ю 3 16 км ясно +23.0 +12.2 51 +26 +26 жарко 973.9
штиль 0 16 км ясно +21.4 +13.9 62 +24 +24 комфорт 974.2
штиль 0 16 км ясно +19.3 +14.3 73 +21 +21 комфорт 974.2
штиль 0 16 км ясно +19.9 +13.5 67 +22 +22 комфорт 974.2
штиль 0 16 км ясно +17.3 +14.7 85 +17 +17 974.2
штиль 0 16 км ясно +16.5 +14.1 86 +16 +16 974.5
штиль 0 16 км ясно +16.0 +14.2 89 +16 +16 974.9
штиль 0 16 км ясно +15.9 +14.1 89 +16 +16 974.9
штиль 0 16 км ясно +15.3 +14.2 93 +15 +15 974.5
штиль 0 16 км ясно +15.2 +13.7 91 +15 +15 974.9
штиль 0 16 км ясно +14.6 +14.1 97 +14 +14 974.9
штиль 0 16 км ясно +14.5 +14.0 97 +14 +14 974.5
штиль 0 16 км ясно +14.0 +13.5 97 +14 +14 974.9
штиль 0 16 км ясно +13.6 +13.1 97 +13 +13 974.9
штиль 0 16 км ясно +13.9 +13.4 97 +13 +13 974.5
штиль 0 16 км ясно +13.0 +13.0 100 +12 +12 974.5
штиль 0 16 км ясно +13.0 +12.5 97 +12 +12 974.5 +12.8 +24.0
штиль 0 16 км ясно +12.5 +12.1 97 +12 +12 974.5
штиль 0 16 км ясно +12.7 +12.2 97 +12 +12 974.5
штиль 0 16 км ясно +12.3 +11.9 97 +12 +12 974.5
штиль 0 16 км ясно +11.8 +11.4 97 +11 +11 974.2
Местоположение метеостанции Bedford County Airport: широта 40.0853 долгота -78.5122 высота над уровнем моря 351 м.
В архиве по умолчанию представлена погода в Бедфорде за последние 1-2 суток. Обновление информации о фактической погоде в базе происходит ежечасно! Архивные данные за месяц целиком и за предыдущие месяцы Вы можете получить, выбрав интересующий диапазон дат из раскрывающегося списка и нажав кнопку "Ввод!".
Внимание! Архив погоды МЕТАР в базе сайта по станциям, не включенным в климатический монитор, хранится не более 60 дней. Нет смысла пытаться выбрать более раннюю дату.
*Определитесь, кто Вы:
Внимание! Время в таблицах - местное (без учета летнего времени). Для получения всемирного времени необходимо вычесть поправку, которая равна -5 ч.
Смотрите также архив погоды в соседних городах и на ближайших метеорологических станциях:
Партнеры нашего сайта:      
Пояснения к столбцам:
  • Ветер - указаны скорость ветра в м/с - средняя за 10 мин, порывы в срок и между сроками (в фигурных скобках) и направление, откуда дует ветер: С - северный,
  • СВ - северо-восточный, В - восточный, ЮВ - юго-восточный, Ю - южный, ЮЗ - юго-западный, З - западный, СЗ - северо-западный.
  • Видимость - горизонтальная дальность видимости в метрах или километрах. При видимости от 1 до 10 км при отсутствии осадков обычно наблюдается дымка, при ухудшении видимости до 1 км и менее - туман. В сухую погоду видимость может ухудшаться дымом, пылью или мглою.
  • Явления - указаны атмосферные явления, наблюдавшиеся в срок или в последний час перед сроком; фигурными скобками обозначены явления, наблюдавшиеся между сроками (за 1-3 часа до срока); квадратными скобками обозначены град или гололедные отложения с указанием их диаметра в мм.
  • Облачность - указаны через наклонную черту общая и нижняя облачность в баллах и высота нижней границы облаков в метрах; квадратными скобками обозначены формы облаков: Ci - перистые, Cs - перисто-слоистые, Cc - перисто-кучевые, Ac - высококучевые, As - высокослоистые, Sc - слоисто-кучевые, Ns - слоисто-дождевые, Cu - кучевые, Cb - кучево-дождевые. Подробнее классификацию облаков см. в Атласе облаков (PDF).
  • T - Температура воздуха - температура, измеренная на высоте 2 м над землей.
  • Td - Температура точки росы - температура, при понижении до которой содержащийся в воздухе водяной пар достигнет насыщения.
  • f - Относительная влажность воздуха - влажноcть воздуха, измеренная на высоте 2 м над землей.
  • Te - Эффективная температура - температура, которую ощущает одетый по сезону человек в тени. Характеристика душности погоды. При расчете учитывается влияние влажности воздуха и скорости ветра на теплоощущения человека.
  • Tes - Эффективная температура на солнце - температура, которую ощущает человек, с поправкой на солнечный нагрев. Характеристика знойности погоды. Зависит от высоты солнца над горизонтом, облачности и скорости ветра. Ночью, в пасмурную погоду, а также при ветре 12 м/с и более поправка равна нулю.
  • P - Атмосферное давление - приведенное к уровню моря атмосферное давление.
  • Po - Атмосферное давление - измеренное на уровне метеостанции атмосферное давление.
  • Tmin - Минимальная температура - минимум температуры воздуха на высоте 2 м над землей.
  • Tmax - Максимальная температура - максимум температуры воздуха на высоте 2 м над землей.
  • R - Количество осадков - Количество выпавших осадков за период времени, мм. При наведении курсора мыши на число - период времени, за который выпало указанное количество осадков.
  • R24 - Количество осадков - Количество выпавших осадков за 24 часа, мм.
  • S - Снежный покров - Высота снежного покрова, см. При наведении курсора мыши на число - состояние снежного покрова и степень покрытия местности в баллах.